User: anonymous   Login
Location: Chiroubles
(46.1812°N, 4.6660°E)
Time: 17:54:51
(UTC+00:00)
Language:

Courier 1B - Orbit

View from above orbital plane
View from above orbital plane
View from above satellite
View from above satellite

Ground track
Ground track

The orbit data is extracted from the following two-line orbital elements,

1 00058U 60013A   20338.63515560  .00000099  00000-0  25337-4 0  9992
2 00058  28.3285 316.3295 0165046  29.9708 331.0171 13.46324370961431
Epoch (UTC): 03 December 2020 15:14:37
Eccentricity: 0.0165046
inclination: 28.3285°
perigee height: 962 km
apogee height: 1209 km
right ascension of ascending node: 316.3295°
argument of perigee: 29.9708°
revolutions per day: 13.46324370
mean anomaly at epoch: 331.0171°
orbit number at epoch: 96143

The dashed part of the orbit path shows where the satellite is in the earth's shadow,  

DLR